Location: Acts Church of Fort Worth
(32.6786°N, 97.2668°W)
Time: 22:03:01
(UTC+00:00)

Cosmos 1758 - Pass Details

Date: 18 January 2026
Orbit: 479 x 500 km, 82.5° (Epoch: 10 February)

Event Time Altitude Azimuth Distance (km) Brightness Sun altitude
Rises 11:42:07 0° 182° (S) 2,574 6.9 -22.6°
Reaches altitude 10° 11:44:13 10° 180° (S) 1,693 5.9 -22.2°
Maximum altitude 11:47:55 75° 95° (E) 517 3.2 -21.4°
Drops below altitude 10° 11:51:37 10° 10° (N) 1,693 5.8 -20.6°
Sets 11:53:43 0° 9° (N) 2,575 6.7 -20.2°
